This is the latest recevied weather packets stored in our database for station/object N0NPO. If no packets are shown the sender has not sent any weather packets the latest 10 day(s).
| Time | Temp. | Humidity | Pressure | Rain* | Wind** | Luminosity | Snow |
|---|---|---|---|---|---|---|---|
| 1778276886 | 20.56° C | 1% | 1012.1 hPa | 0 mm | - | 538 W/m² | - |
| 1778276583 | 21.11° C | 1% | 1012 hPa | 0 mm | - | 577 W/m² | - |
| 1778276279 | 21.67° C | 1% | 1012.1 hPa | 0 mm | - | 527 W/m² | - |
| 1778275976 | 21.11° C | 1% | 1012.2 hPa | 0 mm | - | 524 W/m² | - |
| 1778275673 | 21.67° C | 1% | 1012 hPa | 0 mm | - | 382 W/m² | - |
| 1778275369 | 20.56° C | 1% | 1012 hPa | 0 mm | - | 576 W/m² | - |
| 1778275065 | 21.11° C | 1% | 1012.1 hPa | 0 mm | - | 617 W/m² | - |
| 1778274761 | 21.67° C | 1% | 1011.9 hPa | 0 mm | - | 630 W/m² | - |
| 1778274459 | 21.11° C | 1% | 1012.3 hPa | 0 mm | - | 629 W/m² | - |
| 1778274155 | 21.11° C | 1% | 1012 hPa | 0 mm | - | 609 W/m² | - |
| 1778273852 | 21.11° C | 1% | 1012.1 hPa | 0 mm | - | 488 W/m² | - |
| 1778273548 | 20.56° C | 1% | 1012.2 hPa | 0 mm | - | 635 W/m² | - |
| 1778273245 | 21.67° C | 1% | 1012 hPa | 0 mm | - | 595 W/m² | - |
| 1778272942 | 21.11° C | 1% | 1012.3 hPa | 0 mm | - | 654 W/m² | - |
| 1778272637 | 21.67° C | 1% | 1012.1 hPa | 0 mm | - | 662 W/m² | - |
| 1778272334 | 21.67° C | 1% | 1012.1 hPa | 0 mm | - | 683 W/m² | - |
| 1778272030 | 20.56° C | 1% | 1011.9 hPa | 0 mm | - | 599 W/m² | - |
| 1778271727 | 20.56° C | 1% | 1012.1 hPa | 0 mm | - | 632 W/m² | - |
| 1778271424 | 20.56° C | 1% | 1012.1 hPa | 0 mm | - | 654 W/m² | - |
| 1778271121 | 21.11° C | 1% | 1012 hPa | 0 mm | - | 663 W/m² | - |
| 1778270817 | 21.11° C | 1% | 1012.1 hPa | 0 mm | - | 689 W/m² | - |
| 1778270513 | 21.67° C | 1% | 1011.8 hPa | 0 mm | - | 701 W/m² | - |
| 1778270210 | 21.67° C | 1% | 1011.5 hPa | 0 mm | - | 610 W/m² | - |
| 1778269907 | 21.67° C | 1% | 1011.9 hPa | 0 mm | - | 679 W/m² | - |
| 1778269603 | 21.11° C | 1% | 1011.8 hPa | 0 mm | - | 664 W/m² | - |
* Rain latest hour (hover to see other rain measurements)
** Current wind speed in m/s (hover to see current wind gust speed)